Home   Weather   Las Palmas   Past weeks
Flag for Spain

Past Weather in Las Palmas, Canary Islands, Spain — Yesterday and Last 2 Weeks

Now
64 °F

Scattered clouds.


Feels Like: 64 °F
Forecast: N/A
Wind: 17 mph from North

Location: Las Palmas De Gran Canaria / Gando

Current Time: Feb 19, 2019 at 7:31:42 pm

Latest Report: Feb 19, 2019 at 6:30 pm


Visibility: N/A

Pressure: 30.09 "Hg

Humidity: 52%

Dew Point: 46 °F

Location of Las PalmasLocation

Past Weather in Las Palmas — Graph

°F

Las Palmas Temperature Yesterday

Maximum temperature yesterday: 66 °F (at 9:30 am)
Minimum temperature yesterday: 61 °F (at 2:00 am)
Average temperature yesterday: 62 °F

High & Low Weather Summary for the Past Weeks

 TemperatureHumidityPressure
High79 °F (Feb 14, 10:30 am)94% (Feb 18, 1:00 pm)30.30 "Hg (Feb 18, 1:00 pm)
Low59 °F (Feb 5, 4:00 am)15% (Feb 14, 10:30 pm)30.01 "Hg (Feb 15, 5:00 pm)
Average66 °F54%30.17 "Hg
* Reported Feb 4 6:00 pm — Feb 19 6:00 pm, Las Palmas. Weather by CustomWeather, © 2019

Note: Actual official high and low records may vary slightly from our data, if they occured in-between our weather recording intervals... More about our weather records

Advertising

Las Palmas Weather History for the Previous 24 Hours

Scroll right to see more
 ConditionsComfort  
Time TempWeatherWind HumidityBarometerVisibility
6:00 pm
Tue, Feb 19
64 °FPassing clouds.17 mph52%30.09 "HgN/A
5:30 pm64 °FPassing clouds.22 mph52%30.09 "HgN/A
5:00 pm64 °FPassing clouds.21 mph52%30.09 "HgN/A
4:30 pm66 °FPassing clouds.20 mph46%30.09 "HgN/A
4:00 pm68 °FPassing clouds.22 mph46%30.09 "HgN/A
3:30 pm66 °FPassing clouds.24 mph49%30.09 "HgN/A
3:00 pm66 °FPassing clouds.24 mph46%30.09 "HgN/A
2:30 pm68 °FPassing clouds.24 mph46%30.09 "HgN/A
2:00 pm66 °FScattered clouds.23 mph52%30.12 "HgN/A
1:30 pm68 °FScattered clouds.22 mph49%30.12 "HgN/A
1:00 pm68 °FScattered clouds.20 mph40%30.15 "HgN/A
12:30 pm68 °FPassing clouds.20 mph43%30.15 "HgN/A
12:00 pm68 °FPassing clouds.23 mph40%30.15 "HgN/A
11:30 am66 °FPassing clouds.22 mph43%30.15 "HgN/A
11:00 am66 °FPassing clouds.23 mph49%30.15 "HgN/A
10:30 am66 °FScattered clouds.21 mph52%30.15 "HgN/A
10:00 am64 °FBroken clouds.17 mph56%30.15 "HgN/A
9:30 am64 °FScattered clouds.16 mph56%30.15 "HgN/A
9:00 am63 °FScattered clouds.15 mph59%30.15 "HgN/A
8:30 am61 °FScattered clouds.15 mph63%30.12 "HgN/A
8:00 am59 °FScattered clouds.13 mph68%30.12 "HgN/A
7:30 am59 °FPassing clouds.14 mph68%30.12 "HgN/A
7:00 am59 °FPassing clouds.14 mph68%30.12 "HgN/A
6:30 am59 °FPassing clouds.15 mph68%30.12 "HgN/A
6:00 am59 °FPartly cloudy.12 mph72%30.12 "HgN/A
5:30 am59 °FPartly cloudy.14 mph72%30.12 "HgN/A
5:00 am59 °FPartly cloudy.12 mph68%30.12 "HgN/A
4:30 am59 °FPartly cloudy.13 mph63%30.12 "HgN/A
4:00 am59 °FPassing clouds.14 mph68%30.12 "HgN/A
3:30 am59 °FPassing clouds.16 mph68%30.15 "HgN/A
3:00 am61 °FPassing clouds.16 mph63%30.15 "HgN/A
2:30 am59 °FPassing clouds.13 mph59%30.15 "HgN/A
2:00 am59 °FPassing clouds.13 mph55%30.15 "HgN/A
1:30 am61 °FPassing clouds.21 mph48%30.18 "HgN/A
1:00 am61 °FPassing clouds.14 mph59%30.18 "HgN/A
12:30 am61 °FPassing clouds.15 mph55%30.15 "HgN/A
12:00 am61 °FPassing clouds.14 mph59%30.18 "HgN/A
11:30 pm
Mon, Feb 18
61 °FPassing clouds.18 mph55%30.18 "HgN/A
11:00 pm61 °FPartly cloudy.17 mph63%30.18 "HgN/A
10:30 pm61 °FPassing clouds.12 mph55%30.18 "HgN/A
10:00 pm61 °FPassing clouds.13 mph59%30.18 "HgN/A
9:30 pm61 °FPassing clouds.20 mph63%30.18 "HgN/A
9:00 pm63 °FPassing clouds.17 mph59%30.18 "HgN/A
8:30 pm63 °FPassing clouds.20 mph59%30.15 "HgN/A
8:00 pm63 °FPassing clouds.20 mph64%30.15 "HgN/A
7:30 pm63 °FPassing clouds.17 mph64%30.15 "HgN/A
7:00 pm61 °FPassing clouds.15 mph63%30.15 "HgN/A
Weather by CustomWeather, © 2019

See weather overview